GSAT0201 (GALILEO 5) (40128 NORAD) Tracking and Keplerian Element Data

This shows tracking and keplerian element data for the satellite.

Feedback or suggestion? Click here.




ElementValue
Catalog40128
NameGSAT0201 (GALILEO 5)
Epoch Orbit3626
Epoch Day91.7838555
Epoch Year2020
RAAN4.4717
Inclination50.5771
Eccentricity0.1663989
Argument of Perigee96.7583
Mean Anonmoly282.3534
Mean Motion1.85518783
Decay Rate-8.3E-07
L11 40128U 14050A 20091.78385550 -.00000083 00000-0 00000-0 0 9990
L22 40128 50.5771 4.4717 1663989 96.7583 282.3534 1.85518783 36265

Live tracking and technical data element details for GSAT0201 (GALILEO 5) (NORAD 40128). GSAT0201 (GALILEO 5) can be tracked NOW for your location showing map with azimuth and elevation plus other details from your city location.

Track the satellite on the map from your city or location and see movement details for azimuth, elevation, latitude, longitude, range, height, and movement on the map or in text.







IsCatalogInMostPopularTable: catalog: 40128, numindb: 355
Update: records affected: 1



GetName: 40128 GSAT0201 (GALILEO 5)

Hit Count: updated at: Fri, 03 Apr 2020 08:08:05 GMT